Location: Antioch
(38.0049°N, 121.8058°W)
Time: 02:59:47
(UTC+00:00)

Cosmos 1354 Rocket - Pass Details

Date: 17 May 2026
Orbit: 761 x 778 km, 74.0° (Epoch: 9 June)

Event Time Altitude Azimuth Distance (km) Brightness Sun altitude
Rises 07:28:20 0° 323° (NW) 3,233 8.1 -32.0°
Reaches altitude 10° 07:31:26 10° 304° (NW) 2,299 6.9 -32.1°
Enters shadow 07:33:37 16° 280° (W) 1,895 6.2 -32.2°
